This is the latest recevied weather packets stored in our database for station/object KC5AV. If no packets are shown the sender has not sent any weather packets the latest 10 day(s).
| Time | Temp. | Humidity | Pressure | Rain* | Wind** | Luminosity | Snow |
|---|---|---|---|---|---|---|---|
| 1777424636 | 25.56° C | 88% | 1011.1 hPa | 0 mm | - | 0 W/m² | - |
| 1777424336 | 25.56° C | 89% | 1011.5 hPa | 0 mm | - | 1 W/m² | - |
| 1777424032 | 25.56° C | 89% | 1011.6 hPa | 0 mm | - | 1 W/m² | - |
| 1777423729 | 25.56° C | 89% | 1011.5 hPa | 0 mm | - | 2 W/m² | - |
| 1777423425 | 25.56° C | 88% | 1011.7 hPa | 0 mm | - | 2 W/m² | - |
| 1777423125 | 26.11° C | 88% | 1011.9 hPa | 0 mm | - | 3 W/m² | - |
| 1777422820 | 26.11° C | 88% | 1011.9 hPa | 0 mm | - | 5 W/m² | - |
| 1777422516 | 26.11° C | 88% | 1011.8 hPa | 0 mm | - | 6 W/m² | - |
| 1777422212 | 26.11° C | 88% | 1011.5 hPa | 0 mm | - | 10 W/m² | - |
| 1777421911 | 26.11° C | 88% | 1011.5 hPa | 0 mm | - | 12 W/m² | - |
| 1777421607 | 26.11° C | 87% | 1011.5 hPa | 0 mm | - | 14 W/m² | - |
| 1777421302 | 26.67° C | 86% | 1011.5 hPa | 0 mm | - | 18 W/m² | - |
| 1777420999 | 26.67° C | 85% | 1011.6 hPa | 0 mm | - | 14 W/m² | - |
| 1777420695 | 26.67° C | 84% | 1012.2 hPa | 0 mm | - | 13 W/m² | - |
| 1777420392 | 27.22° C | 84% | 1012.3 hPa | 0 mm | - | 16 W/m² | - |
| 1777420088 | 27.22° C | 83% | 1012.2 hPa | 0 mm | - | 15 W/m² | - |
| 1777419784 | 27.22° C | 82% | 1012.1 hPa | 0 mm | - | 14 W/m² | - |
| 1777419482 | 27.22° C | 83% | 1012.5 hPa | 0 mm | - | 12 W/m² | - |
| 1777419181 | 27.22° C | 82% | 1012.8 hPa | 0 mm | - | 13 W/m² | - |
| 1777418876 | 27.22° C | 82% | 1012.4 hPa | 0 mm | - | 8 W/m² | - |
| 1777418572 | 27.22° C | 82% | 1012.4 hPa | 0 mm | - | 10 W/m² | - |
| 1777418269 | 27.22° C | 82% | 1012.1 hPa | 0 mm | - | 11 W/m² | - |
| 1777417964 | 27.22° C | 83% | 1011.7 hPa | 0 mm | - | 13 W/m² | - |
| 1777417660 | 27.22° C | 83% | 1011.5 hPa | 0 mm | - | 16 W/m² | - |
| 1777417356 | 27.22° C | 82% | 1011.3 hPa | 0 mm | - | 26 W/m² | - |
* Rain latest hour (hover to see other rain measurements)
** Current wind speed in m/s (hover to see current wind gust speed)